星链-30504 (STARLINK-30504 )

导读 | 星芒AI

STARLINK-30504 是 SpaceX Starlink 卫星互联网项目中的一颗低轨卫星,属于第 14 批部署的星链卫星之一。该卫星于 2022 年 3 月发射,运行在约 550 公里的轨道高度,旨在为全球用户提供高速、低延迟的宽带互联网服务。它采用先进的推进系统和激光通信技术,支持星间通信,提高网络效率与覆盖范围。作为 Starlink 项目的重要组成部分,STARLINK-30504 有助于扩大 SpaceX 在全球卫星互联网市场的影响力。

基本信息
目录编号:
57980
目录名称:
STARLINK-30504
国际标识:
2023-151S
轨道中心:
EARTH
卫星名称:
星链-30504
卫星全名:
星链-30504 (STARLINK-30504 )
卫星状态:
在轨 (已飞行761 天)
发射日期:
2023-09-30 UTC
国别 :
美国 (US)
星等 :
--
轨道信息
数据来源 国际轨道数据
星历时间: 2025-10-30T06:01:42+0800
1天前
查看轨道信息
半长轴: 6866.201km
偏心率: 0.0000813
轨道倾角: 43.002°
近地点辐角 255.052°
升交点赤经 252.703°
平近点角 105.024°
近地点: 487.507km
远地点: 488.625km
周期: 94.370分钟
每日圈数: 15.259068
详细信息
固有亮度:
5
最大亮度:
0.3
卫星平台:
Starlink v2.0 mini
覆盖范围:
全球
运营商:
太空探索技术公司
运营商所在国:
美国
制造商(研发单位):
太空探索技术公司
制造商所在国:
美国
使用方式:
暂无
卫星简介
星链(Starlink)计划是由太空探索技术公司(SpaceX)提出的一个巨型低轨卫星互联网星座项目,计划在2019年至2024年间在太空搭建由约1.2万颗卫星组成的“星链”网络,其中1584颗将部署在地球上空550千米处的近地轨道,并从2020年开始工作。该卫星仍在工作。
2D轨道图
3D轨道图
轨道高度分析图
轨道倾角分析图
轨道综合分析图
查看轨道综合分析图